Вернуться в каталог

UFO 11

USA 174

АктивенВоенныеGEO
NORAD 28117·PAYLOAD·🇺🇸 United States

Запущен Dec 18, 2003 с Cape Canaveral Space Force Station

Loading…

TLE

СвежийSource: Space-Track

Эпоха: Sep 14, 2026, 10:44 UTC

1 28117U 03057A   26257.44746459 -.00000109  00000-0  00000-0 0  9990
2 28117   9.0251  33.3400 0003828 155.3900  41.2178  1.00271504 83346

Отслеживайте UFO 11 в реальном времени с AllMySat

Download on the App Store